Volver al catálogo

COSMOS 1823 DEB

ActivoLEO
NORAD 18806·DEBRIS·🇷🇺 Russia

Lanzado Feb 20, 1987 desde Plesetsk Cosmodrome

Loading…

Próximos Pases (próximas 24 horas)

TLE

ActualizadoSource: Space-Track

Época: Sep 14, 2026, 09:40 UTC

1 18806U 87020AS  26257.40322443  .00000103  00000-0  94548-3 0  9991
2 18806  73.4802  53.8843 0083063 220.3514 165.8260 12.35587057743811

Sigue COSMOS 1823 DEB en tiempo real con AllMySat

Download on the App Store